• In Deutschland
  • Länderverzeichnis
  • Für 7 Tage
  • Wassertemperatur
  • Satellitenkarten
  • Wetterkarte
  • Widgets
  • user-avatar
    Anmelden

    Stündliche Wetter Lubango

    Heute, 22 Juli, Samstag

    Zeit Temperatur Niederschläge Wind Luftdruck Luftfeuchtigkeit
    00:00 +12°C° 0 mm 1 m/S 609 mmHg 53%
    01:00 +11°C° 0 mm 1 m/S 609 mmHg 56%
    02:00 +11°C° 0 mm 1 m/S 608 mmHg 56%
    03:00 +11°C° 0 mm 1 m/S 608 mmHg 56%
    04:00 +11°C° 0 mm 1 m/S 608 mmHg 56%
    05:00 +11°C° 0 mm 1 m/S 608 mmHg 53%
    06:00 +11°C° 0 mm 1 m/S 609 mmHg 51%
    07:00 +11°C° 0 mm 1 m/S 609 mmHg 48%
    08:00 +14°C° 0 mm 1 m/S 611 mmHg 39%
    09:00 +19°C° 0 mm 1 m/S 612 mmHg 29%
    10:00 +23°C° 0 mm 1 m/S 614 mmHg 20%
    11:00 +24°C° 0 mm 2 m/S 614 mmHg 18%
    12:00 +26°C° 0 mm 2 m/S 614 mmHg 17%
    13:00 +27°C° 0 mm 2 m/S 614 mmHg 16%
    14:00 +27°C° 0 mm 2 m/S 614 mmHg 18%
    15:00 +26°C° 0 mm 2 m/S 613 mmHg 20%
    16:00 +25°C° 0 mm 3 m/S 612 mmHg 22%
    17:00 +21°C° 0 mm 2 m/S 611 mmHg 33%
    18:00 +17°C° 0 mm 2 m/S 610 mmHg 45%
    19:00 +14°C° 0 mm 2 m/S 610 mmHg 56%
    20:00 +13°C° 0 mm 1 m/S 610 mmHg 61%
    21:00 +12°C° 0 mm 1 m/S 610 mmHg 67%
    22:00 +10°C° 0 mm 0 m/S 610 mmHg 72%
    23:00 +10°C° 0 mm 0 m/S 610 mmHg 70%

    Morgen, 23 Juli, Sonntag

    Zeit Temperatur Niederschläge Wind Luftdruck Luftfeuchtigkeit
    00:00 +11°C° 0 mm 1 m/S 609 mmHg 68%
    01:00 +11°C° 0 mm 1 m/S 609 mmHg 66%
    02:00 +10°C° 0 mm 1 m/S 609 mmHg 62%
    03:00 +10°C° 0 mm 1 m/S 609 mmHg 58%
    04:00 +10°C° 0 mm 1 m/S 608 mmHg 54%
    05:00 +10°C° 0 mm 1 m/S 609 mmHg 49%
    06:00 +10°C° 0 mm 1 m/S 609 mmHg 45%
    07:00 +10°C° 0 mm 1 m/S 609 mmHg 41%
    08:00 +14°C° 0 mm 2 m/S 611 mmHg 32%
    09:00 +18°C° 0 mm 2 m/S 613 mmHg 23%
    10:00 +22°C° 0 mm 3 m/S 614 mmHg 15%
    11:00 +25°C° 0 mm 2 m/S 614 mmHg 13%
    12:00 +26°C° 0 mm 2 m/S 614 mmHg 11%
    13:00 +28°C° 0 mm 2 m/S 614 mmHg 10%
    14:00 +28°C° 0 mm 2 m/S 614 mmHg 10%
    15:00 +28°C° 0 mm 2 m/S 613 mmHg 10%
    16:00 +27°C° 0 mm 2 m/S 613 mmHg 11%
    17:00 +24°C° 0 mm 2 m/S 612 mmHg 18%
    18:00 +19°C° 0 mm 2 m/S 611 mmHg 24%
    19:00 +16°C° 0 mm 1 m/S 610 mmHg 31%
    20:00 +15°C° 0 mm 1 m/S 610 mmHg 34%
    21:00 +14°C° 0 mm 1 m/S 610 mmHg 38%
    22:00 +13°C° 0 mm 1 m/S 610 mmHg 41%
    23:00 +12°C° 0 mm 1 m/S 610 mmHg 41%

    übermorgen, 24 Juli, Montag

    Zeit Temperatur Niederschläge Wind Luftdruck Luftfeuchtigkeit
    00:00 +12°C° 0 mm 1 m/S 610 mmHg 40%
    01:00 +12°C° 0 mm 1 m/S 609 mmHg 40%
    02:00 +12°C° 0 mm 1 m/S 609 mmHg 39%
    03:00 +11°C° 0 mm 1 m/S 609 mmHg 38%
    04:00 +11°C° 0 mm 1 m/S 609 mmHg 37%
    05:00 +11°C° 0 mm 1 m/S 609 mmHg 35%
    06:00 +11°C° 0 mm 1 m/S 609 mmHg 33%
    07:00 +11°C° 0 mm 1 m/S 610 mmHg 31%
    08:00 +15°C° 0 mm 2 m/S 612 mmHg 24%
    09:00 +19°C° 0 mm 2 m/S 613 mmHg 18%
    10:00 +25°C° 0 mm 3 m/S 615 mmHg 11%
    11:00 +26°C° 0 mm 3 m/S 615 mmHg 10%
    12:00 +28°C° 0 mm 2 m/S 615 mmHg 9%
    13:00 +29°C° 0 mm 2 m/S 615 mmHg 8%
    14:00 +29°C° 0 mm 2 m/S 614 mmHg 9%
    15:00 +28°C° 0 mm 2 m/S 614 mmHg 10%
    16:00 +27°C° 0 mm 3 m/S 613 mmHg 10%
    17:00 +24°C° 0 mm 2 m/S 612 mmHg 18%
    18:00 +19°C° 0 mm 2 m/S 611 mmHg 26%
    19:00 +15°C° 0 mm 1 m/S 610 mmHg 34%
    20:00 +14°C° 0 mm 1 m/S 610 mmHg 36%
    21:00 +14°C° 0 mm 1 m/S 610 mmHg 38%
    22:00 +13°C° 0 mm 1 m/S 611 mmHg 40%
    23:00 +13°C° 0 mm 1 m/S 610 mmHg 39%

    25 Juli, Dienstag

    Zeit Temperatur Niederschläge Wind Luftdruck Luftfeuchtigkeit
    00:00 +13°C° 0 mm 1 m/S 610 mmHg 38%
    01:00 +13°C° 0 mm 2 m/S 610 mmHg 38%
    02:00 +12°C° 0 mm 1 m/S 610 mmHg 36%
    03:00 +12°C° 0 mm 1 m/S 609 mmHg 34%
    04:00 +12°C° 0 mm 1 m/S 609 mmHg 33%
    05:00 +12°C° 0 mm 1 m/S 609 mmHg 31%
    06:00 +11°C° 0 mm 1 m/S 610 mmHg 30%
    07:00 +11°C° 0 mm 1 m/S 610 mmHg 29%
    08:00 +15°C° 0 mm 2 m/S 612 mmHg 23%
    09:00 +20°C° 0 mm 3 m/S 613 mmHg 17%
    10:00 +25°C° 0 mm 3 m/S 615 mmHg 11%
    11:00 +26°C° 0 mm 3 m/S 615 mmHg 10%
    12:00 +28°C° 0 mm 3 m/S 615 mmHg 9%
    13:00 +29°C° 0 mm 3 m/S 615 mmHg 8%
    14:00 +29°C° 0 mm 3 m/S 614 mmHg 9%
    15:00 +28°C° 0 mm 3 m/S 613 mmHg 10%
    16:00 +27°C° 0 mm 3 m/S 612 mmHg 10%
    17:00 +24°C° 0 mm 3 m/S 611 mmHg 17%
    18:00 +19°C° 0 mm 2 m/S 610 mmHg 23%
    19:00 +16°C° 0 mm 1 m/S 609 mmHg 30%
    20:00 +15°C° 0 mm 1 m/S 609 mmHg 32%
    21:00 +14°C° 0 mm 1 m/S 610 mmHg 33%
    22:00 +14°C° 0 mm 1 m/S 610 mmHg 35%
    23:00 +13°C° 0 mm 1 m/S 609 mmHg 34%

    26 Juli, Mittwoch

    Zeit Temperatur Niederschläge Wind Luftdruck Luftfeuchtigkeit
    00:00 +13°C° 0 mm 2 m/S 609 mmHg 32%
    01:00 +13°C° 0 mm 2 m/S 609 mmHg 30%
    02:00 +13°C° 0 mm 2 m/S 609 mmHg 29%
    03:00 +12°C° 0 mm 2 m/S 608 mmHg 27%
    04:00 +12°C° 0 mm 2 m/S 608 mmHg 25%
    05:00 +12°C° 0 mm 2 m/S 608 mmHg 24%
    06:00 +12°C° 0 mm 2 m/S 609 mmHg 23%
    07:00 +12°C° 0 mm 2 m/S 609 mmHg 22%
    08:00 +16°C° 0 mm 3 m/S 611 mmHg 18%
    09:00 +20°C° 0 mm 3 m/S 612 mmHg 14%
    10:00 +25°C° 0 mm 4 m/S 614 mmHg 10%
    11:00 +26°C° 0 mm 3 m/S 614 mmHg 10%
    12:00 +27°C° 0 mm 3 m/S 614 mmHg 9%
    13:00 +29°C° 0 mm 3 m/S 613 mmHg 8%
    14:00 +28°C° 0 mm 3 m/S 613 mmHg 9%
    15:00 +28°C° 0 mm 2 m/S 612 mmHg 10%
    16:00 +28°C° 0 mm 2 m/S 612 mmHg 11%
    17:00 +24°C° 0 mm 2 m/S 611 mmHg 17%
    18:00 +21°C° 0 mm 1 m/S 610 mmHg 24%
    19:00 +16°C° 0 mm 1 m/S 609 mmHg 30%
    20:00 +15°C° 0 mm 1 m/S 609 mmHg 32%
    21:00 +14°C° 0 mm 1 m/S 609 mmHg 34%
    22:00 +14°C° 0 mm 1 m/S 609 mmHg 36%
    23:00 +13°C° 0 mm 1 m/S 609 mmHg 35%

    27 Juli, Donnerstag

    Zeit Temperatur Niederschläge Wind Luftdruck Luftfeuchtigkeit
    00:00 +13°C° 0 mm 1 m/S 609 mmHg 34%
    01:00 +12°C° 0 mm 1 m/S 609 mmHg 32%
    02:00 +12°C° 0 mm 1 m/S 608 mmHg 31%
    03:00 +12°C° 0 mm 1 m/S 608 mmHg 30%
    04:00 +11°C° 0 mm 1 m/S 608 mmHg 29%
    05:00 +11°C° 0 mm 1 m/S 608 mmHg 28%
    06:00 +11°C° 0 mm 1 m/S 609 mmHg 27%
    07:00 +10°C° 0 mm 2 m/S 609 mmHg 26%
    08:00 +14°C° 0 mm 3 m/S 611 mmHg 22%
    09:00 +19°C° 0 mm 4 m/S 612 mmHg 19%
    10:00 +23°C° 0 mm 5 m/S 614 mmHg 15%
    11:00 +26°C° 0 mm 4 m/S 614 mmHg 14%
    12:00 +27°C° 0 mm 4 m/S 614 mmHg 13%
    13:00 +29°C° 0 mm 4 m/S 614 mmHg 11%
    14:00 +28°C° 0 mm 3 m/S 613 mmHg 13%
    15:00 +28°C° 0 mm 3 m/S 613 mmHg 14%
    16:00 +27°C° 0 mm 2 m/S 612 mmHg 16%
    17:00 +24°C° 0 mm 2 m/S 611 mmHg 25%
    18:00 +19°C° 0 mm 2 m/S 611 mmHg 35%
    19:00 +16°C° 0 mm 1 m/S 610 mmHg 45%
    20:00 +15°C° 0 mm 1 m/S 610 mmHg 50%
    21:00 +14°C° 0 mm 1 m/S 610 mmHg 54%
    22:00 +13°C° 0 mm 1 m/S 610 mmHg 59%
    23:00 +12°C° 0 mm 1 m/S 610 mmHg 59%
    Mehr zeigen